Location: Finkenwalde
(53.3770°N, 14.6418°E)
Time: 01:31:50
(UTC+00:00)

Cosmos 2058 Rocket - Pass Details

Date: 05 February 2023
Orbit: 610 x 637 km, 82.5° (Epoch: 20 March)

Event Time Altitude Azimuth Distance (km) Brightness Sun altitude
Rises 16:59:13 0° 352° (N) 2,900 6.5 -10.3°
Reaches altitude 10° 17:01:31 10° 359° (N) 1,994 5.6 -10.6°
Maximum altitude 17:05:47 46° 73° (ENE) 841 3.3 -11.2°
Drops below altitude 10° 17:10:02 10° 147° (SSE) 1,994 5.4 -11.9°
Sets 17:12:21 0° 153° (SSE) 2,901 6.3 -12.2°
